Regional Weather Roundup
Issued by NWS

Home | Current Version | Previous Version | Text Only | Print | Product List | Glossary Off
Versions: 1 2 3 4 5 6 7 8 9 10 11 12 13 14 15 16 17 18 19 20 21 22 23 24 25 26 27 28 29 30 31 32 33 34 35 36 37 38 39 40 41 42 43 44 45 46 47 48 49 50

867
ASUS43 KOAX 260910
RWRNE

WEATHER ROUNDUP FOR NEBRASKA
NATIONAL WEATHER SERVICE OMAHA NE
400 AM CDT WED APR 26 2017

NOTES: SATELLITE DATA IS BEING USED TO AUGMENT CLOUD COVER ABOVE
       12000 FEET.
       "FAIR" INDICATES FEW OR NO CLOUDS BELOW 12,000 FEET WITH NO
       SIGNIFICANT WEATHER AND/OR OBSTRUCTIONS TO VISIBILITY.

  * THESE STATIONS DO NOT REPORT WEATHER SUCH AS RAIN...SNOW OR FOG.

NEZ001>004-019>022-054>056-261000-
NEBRASKA PANHANDLE

CITY           SKY/WX    TMP DP  RH WIND       PRES   REMARKS
SCOTTSBLUFF    CLOUDY    33  25  72 NW17G23   29.84S WCI  22
ALLIANCE       CLOUDY    27  23  85 N14       29.80F WCI  16
CHADRON        CLOUDY    29  26  89 N7        29.86F WCI  22
KIMBALL        CLOUDY    32  30  94 NW10      29.80S WCI  24
SIDNEY         CLOUDY    29  26  89 N10       29.80F WCI  20
$$

NEZ057>060-069>072-079>082-261000-
SOUTHWEST NEBRASKA

CITY           SKY/WX    TMP DP  RH WIND       PRES   REMARKS
NORTH PLATTE   CLOUDY    32  26  78 NW20G25   29.77F WCI  20
IMPERIAL       PTCLDY    31  24  75 N15       29.79S WCI  20
LEXINGTON      CLOUDY    34  28  77 N20G28    29.76R WCI  22
MCCOOK         CLOUDY    35  27  72 N21G28    29.77R WCI  24
OGALLALA       CLOUDY    32  25  76 N13G18    29.80F WCI  22
$$

NEZ005>010-023>029-035>040-094-261000-
NORTH CENTRAL NEBRASKA

CITY           SKY/WX    TMP DP  RH WIND       PRES   REMARKS
VALENTINE      CLOUDY    31  24  75 N15G24    29.79F WCI  20
AINSWORTH      CLOUDY    30  28  92 N18G25    29.76S WCI  18
BROKEN BOW     CLOUDY    32  26  78 N18G32    29.73S WCI  20
O`NEILL        CLOUDY    32  30  93 NW20G29   29.71S WCI  20
ORD            CLOUDY    33  28  81 NW26G32   29.71R WCI  20
THEDFORD       CLOUDY    31  26  81 NW16G24   29.77F WCI  20
$$

NEZ041-046>049-061>064-073>077-083>087-261000-
SOUTH CENTRAL NEBRASKA

CITY           SKY/WX    TMP DP  RH WIND       PRES   REMARKS
GRAND ISLAND   CLOUDY    34  33  96 NW18G28   29.71R WCI  23
AURORA         CLOUDY    36  32  87 N21G31    29.69R WCI  24
HASTINGS       CLOUDY    36  31  82 N22       29.73R WCI  25
HEBRON         CLOUDY    38  33  80 N15G24    29.69S WCI  30
HOLDREGE       CLOUDY    34  29  80 N17G26    29.74R WCI  24
KEARNEY *      CLOUDY    36  27  69 N16       29.74R WCI  26
YORK           CLOUDY    36  32  87 N13G20    29.68R WCI  27
$$

NEZ011>018-030>034-042>045-261000-
NORTHEAST NEBRASKA

CITY           SKY/WX    TMP DP  RH WIND       PRES   REMARKS
NORFOLK        CLOUDY    33  29  85 NW22G32   29.66S WCI  21
ALBION         CLOUDY    35  32  87 NW20G30   29.68R WCI  24
BLAIR          CLOUDY    37  35  94 NW16G25   29.60R FOG     WCI  27
FREMONT        CLOUDY    37  35  94 NW18G25   29.64R WCI  26
TEKAMAH        CLOUDY    37  34  89 NW18G28   29.61S WCI  27
WAYNE          CLOUDY    34  33  99 NW23G32   29.65S WCI  22
$$

NEZ050>053-065>068-078-088>093-261000-
SOUTHEAST NEBRASKA

CITY           SKY/WX    TMP DP  RH WIND       PRES   REMARKS
LINCOLN        CLOUDY    39  33  79 N22G28    29.65S WCI  29
OMAHA EPPLEY   DRIZZLE   39  34  82 NW18      29.60R WCI  30
BEATRICE       CLOUDY    38  35  87 NW16G28   29.65R WCI  29
FALLS CITY     CLOUDY    41  37  86 NW18G26   29.57R
NEBRASKA CITY  CLOUDY    40  36  86 NW18G24   29.60R WCI  30
PLATTSMOUTH    CLOUDY    38  35  88 NW15G26   29.60R FOG     WCI  29
$$

NEZ044-045-051>053-067-261000-
OMAHA AREA

CITY           SKY/WX    TMP DP  RH WIND       PRES   REMARKS
OMAHA EPPLEY   DRIZZLE   39  34  82 NW18      29.60R WCI  30
BLAIR          CLOUDY    37  35  94 NW16G25   29.60R FOG     WCI  27
FREMONT        CLOUDY    37  35  94 NW18G25   29.64R WCI  26
MILLARD        CLOUDY    39  37  91 NW14G24   29.62R FOG     WCI  31
OFFUTT AFB     LGT RAIN  39  36  88 NW15G22   29.60R WCI  30
PLATTSMOUTH    CLOUDY    38  35  88 NW15G26   29.60R FOG     WCI  29
WAHOO          CLOUDY    37  33  85 NW17G28   29.63R WCI  27
$$




USA.gov is the U.S. government's official web portal to all federal, state and local government web resources and services.